When you browse on this site, cookies collect data to enhance your experience and personalize the content and advertising you see.
Visit our Privacy Policy to learn more. By continuing to use the site, you agree to this use of cookies and data.
  • în România
  • Lista ţărilor
  • Pe 7 zile
  • Temperatura apei
  • Meteo pe hartă
  • Widget-uri
  • user-avatar
    Intrare

    Meteo pe oră la Córdoba

    Astăzi, 12 Decembrie, Joi

    Timp Temperatura Precipitaţii Vânt Presiune Umiditate
    00:00 +26°C° 0.1 mm 4 m/s 719 mmHg 53%
    01:00 +26°C° 0.1 mm 4 m/s 720 mmHg 55%
    02:00 +24°C° 0 mm 2 m/s 720 mmHg 71%
    03:00 +22°C° 0 mm 4 m/s 720 mmHg 57%
    04:00 +22°C° 0 mm 5 m/s 721 mmHg 43%
    05:00 +22°C° 0 mm 7 m/s 721 mmHg 30%
    06:00 +22°C° 0 mm 7 m/s 722 mmHg 26%
    07:00 +22°C° 0 mm 7 m/s 722 mmHg 21%
    08:00 +22°C° 0 mm 7 m/s 723 mmHg 17%
    09:00 +23°C° 0 mm 6 m/s 724 mmHg 16%
    10:00 +25°C° 0 mm 5 m/s 724 mmHg 14%
    11:00 +26°C° 0 mm 5 m/s 724 mmHg 12%
    12:00 +27°C° 0 mm 4 m/s 724 mmHg 12%
    13:00 +28°C° 0 mm 4 m/s 723 mmHg 12%
    14:00 +29°C° 0 mm 3 m/s 723 mmHg 11%
    15:00 +29°C° 0 mm 3 m/s 723 mmHg 11%
    16:00 +29°C° 0 mm 3 m/s 722 mmHg 11%
    17:00 +29°C° 0 mm 3 m/s 722 mmHg 11%
    18:00 +28°C° 0 mm 2 m/s 722 mmHg 12%
    19:00 +26°C° 0 mm 1 m/s 722 mmHg 13%
    20:00 +24°C° 0 mm 1 m/s 723 mmHg 15%
    21:00 +23°C° 0 mm 1 m/s 723 mmHg 16%
    22:00 +22°C° 0 mm 1 m/s 723 mmHg 17%
    23:00 +21°C° 0 mm 1 m/s 724 mmHg 18%

    Mâine, 13 Decembrie, Vineri

    Timp Temperatura Precipitaţii Vânt Presiune Umiditate
    00:00 +21°C° 0 mm 1 m/s 723 mmHg 18%
    01:00 +20°C° 0 mm 1 m/s 723 mmHg 19%
    02:00 +18°C° 0 mm 0 m/s 723 mmHg 19%
    03:00 +17°C° 0 mm 0 m/s 722 mmHg 20%
    04:00 +17°C° 0 mm 0 m/s 722 mmHg 20%
    05:00 +18°C° 0 mm 1 m/s 722 mmHg 21%
    06:00 +21°C° 0 mm 1 m/s 723 mmHg 18%
    07:00 +23°C° 0 mm 2 m/s 723 mmHg 16%
    08:00 +25°C° 0 mm 3 m/s 724 mmHg 14%
    09:00 +27°C° 0 mm 4 m/s 723 mmHg 14%
    10:00 +29°C° 0 mm 5 m/s 723 mmHg 13%
    11:00 +32°C° 0 mm 6 m/s 723 mmHg 12%
    12:00 +32°C° 0 mm 6 m/s 722 mmHg 13%
    13:00 +33°C° 0 mm 7 m/s 721 mmHg 13%
    14:00 +33°C° 0 mm 7 m/s 721 mmHg 14%
    15:00 +33°C° 0 mm 6 m/s 720 mmHg 17%
    16:00 +33°C° 0 mm 6 m/s 720 mmHg 20%
    17:00 +32°C° 0 mm 5 m/s 719 mmHg 23%
    18:00 +29°C° 0 mm 5 m/s 719 mmHg 27%
    19:00 +27°C° 0 mm 4 m/s 720 mmHg 31%
    20:00 +25°C° 0 mm 3 m/s 720 mmHg 34%
    21:00 +25°C° 0 mm 3 m/s 720 mmHg 36%
    22:00 +24°C° 0 mm 2 m/s 721 mmHg 37%
    23:00 +24°C° 0 mm 2 m/s 721 mmHg 38%

    Poimâine, 14 Decembrie, Sâmbătă

    Timp Temperatura Precipitaţii Vânt Presiune Umiditate
    00:00 +24°C° 0 mm 2 m/s 721 mmHg 39%
    01:00 +24°C° 0 mm 2 m/s 720 mmHg 39%
    02:00 +24°C° 0 mm 2 m/s 720 mmHg 39%
    03:00 +24°C° 0 mm 2 m/s 720 mmHg 43%
    04:00 +23°C° 0 mm 2 m/s 720 mmHg 48%
    05:00 +23°C° 0 mm 2 m/s 720 mmHg 53%
    06:00 +22°C° 0 mm 3 m/s 720 mmHg 54%
    07:00 +24°C° 0 mm 3 m/s 720 mmHg 55%
    08:00 +25°C° 0 mm 4 m/s 721 mmHg 57%
    09:00 +26°C° 0.1 mm 4 m/s 720 mmHg 57%
    10:00 +27°C° 0.1 mm 4 m/s 720 mmHg 58%
    11:00 +28°C° 0.1 mm 4 m/s 720 mmHg 58%
    12:00 +29°C° 0.2 mm 4 m/s 720 mmHg 59%
    13:00 +29°C° 0.2 mm 4 m/s 719 mmHg 59%
    14:00 +29°C° 0.2 mm 4 m/s 719 mmHg 59%
    15:00 +30°C° 0.4 mm 4 m/s 718 mmHg 58%
    16:00 +30°C° 0.4 mm 4 m/s 717 mmHg 57%
    17:00 +30°C° 0.4 mm 4 m/s 717 mmHg 56%
    18:00 +29°C° 0.2 mm 3 m/s 717 mmHg 65%
    19:00 +27°C° 0.2 mm 3 m/s 717 mmHg 73%
    20:00 +25°C° 0.2 mm 3 m/s 718 mmHg 81%
    21:00 +25°C° 1 mm 2 m/s 718 mmHg 84%
    22:00 +24°C° 1 mm 2 m/s 719 mmHg 87%
    23:00 +23°C° 1 mm 2 m/s 719 mmHg 90%

    15 Decembrie, Duminică

    Timp Temperatura Precipitaţii Vânt Presiune Umiditate
    00:00 +23°C° 1.8 mm 2 m/s 719 mmHg 87%
    01:00 +21°C° 1.8 mm 2 m/s 719 mmHg 85%
    02:00 +20°C° 1.8 mm 2 m/s 719 mmHg 82%
    03:00 +20°C° 0.1 mm 3 m/s 719 mmHg 79%
    04:00 +20°C° 0.1 mm 4 m/s 719 mmHg 76%
    05:00 +20°C° 0.1 mm 5 m/s 719 mmHg 72%
    06:00 +21°C° 0 mm 6 m/s 720 mmHg 64%
    07:00 +23°C° 0 mm 6 m/s 721 mmHg 55%
    08:00 +24°C° 0 mm 7 m/s 721 mmHg 47%
    09:00 +27°C° 0 mm 7 m/s 722 mmHg 40%
    10:00 +29°C° 0 mm 7 m/s 722 mmHg 34%
    11:00 +32°C° 0 mm 7 m/s 722 mmHg 27%
    12:00 +33°C° 0 mm 6 m/s 721 mmHg 25%
    13:00 +34°C° 0 mm 6 m/s 721 mmHg 23%
    14:00 +35°C° 0 mm 6 m/s 720 mmHg 21%
    15:00 +34°C° 0 mm 5 m/s 720 mmHg 21%
    16:00 +34°C° 0 mm 5 m/s 720 mmHg 21%
    17:00 +34°C° 0 mm 5 m/s 719 mmHg 21%
    18:00 +32°C° 0 mm 4 m/s 719 mmHg 22%
    19:00 +29°C° 0 mm 3 m/s 720 mmHg 24%
    20:00 +27°C° 0 mm 2 m/s 720 mmHg 26%
    21:00 +26°C° 0 mm 3 m/s 720 mmHg 25%
    22:00 +25°C° 0 mm 3 m/s 721 mmHg 24%
    23:00 +24°C° 0 mm 3 m/s 721 mmHg 23%

    16 Decembrie, Luni

    Timp Temperatura Precipitaţii Vânt Presiune Umiditate
    00:00 +22°C° 0 mm 3 m/s 721 mmHg 23%
    01:00 +23°C° 0 mm 2 m/s 720 mmHg 23%
    02:00 +21°C° 0 mm 2 m/s 720 mmHg 23%
    03:00 +21°C° 0 mm 2 m/s 720 mmHg 24%
    04:00 +20°C° 0 mm 2 m/s 720 mmHg 24%
    05:00 +20°C° 0 mm 2 m/s 720 mmHg 24%
    06:00 +23°C° 0 mm 2 m/s 721 mmHg 21%
    07:00 +26°C° 0 mm 2 m/s 721 mmHg 19%
    08:00 +28°C° 0 mm 2 m/s 722 mmHg 16%
    09:00 +29°C° 0 mm 2 m/s 722 mmHg 15%
    10:00 +31°C° 0 mm 2 m/s 722 mmHg 14%
    11:00 +33°C° 0 mm 3 m/s 721 mmHg 13%
    12:00 +34°C° 0 mm 3 m/s 721 mmHg 13%
    13:00 +34°C° 0 mm 4 m/s 720 mmHg 13%
    14:00 +35°C° 0 mm 4 m/s 720 mmHg 13%
    15:00 +34°C° 0 mm 4 m/s 719 mmHg 14%
    16:00 +34°C° 0 mm 4 m/s 719 mmHg 15%
    17:00 +34°C° 0 mm 4 m/s 718 mmHg 15%
    18:00 +30°C° 0 mm 4 m/s 719 mmHg 20%
    19:00 +27°C° 0 mm 3 m/s 719 mmHg 25%
    20:00 +25°C° 0 mm 3 m/s 719 mmHg 30%
    21:00 +24°C° 0 mm 2 m/s 720 mmHg 31%
    22:00 +23°C° 0 mm 2 m/s 720 mmHg 33%
    23:00 +22°C° 0 mm 1 m/s 721 mmHg 35%

    17 Decembrie, Marţi

    Timp Temperatura Precipitaţii Vânt Presiune Umiditate
    00:00 +21°C° 0 mm 2 m/s 721 mmHg 35%
    01:00 +21°C° 0 mm 2 m/s 720 mmHg 35%
    02:00 +21°C° 0 mm 3 m/s 720 mmHg 34%
    03:00 +21°C° 0 mm 3 m/s 720 mmHg 35%
    04:00 +21°C° 0 mm 2 m/s 720 mmHg 35%
    05:00 +21°C° 0 mm 2 m/s 720 mmHg 35%
    06:00 +24°C° 0 mm 3 m/s 721 mmHg 37%
    07:00 +26°C° 0 mm 3 m/s 721 mmHg 39%
    08:00 +28°C° 0 mm 4 m/s 722 mmHg 40%
    09:00 +30°C° 0 mm 4 m/s 722 mmHg 36%
    10:00 +33°C° 0 mm 5 m/s 721 mmHg 31%
    11:00 +35°C° 0 mm 5 m/s 721 mmHg 26%
    12:00 +36°C° 0 mm 5 m/s 721 mmHg 24%
    13:00 +37°C° 0 mm 5 m/s 720 mmHg 22%
    14:00 +38°C° 0 mm 6 m/s 719 mmHg 21%
    15:00 +38°C° 0 mm 6 m/s 719 mmHg 21%
    16:00 +36°C° 0 mm 6 m/s 718 mmHg 22%
    17:00 +36°C° 0 mm 6 m/s 718 mmHg 22%
    18:00 +34°C° 0 mm 6 m/s 718 mmHg 26%
    19:00 +32°C° 0 mm 6 m/s 718 mmHg 30%
    20:00 +29°C° 0 mm 5 m/s 718 mmHg 34%
    21:00 +28°C° 0 mm 5 m/s 718 mmHg 37%
    22:00 +27°C° 0 mm 5 m/s 719 mmHg 41%
    23:00 +26°C° 0 mm 5 m/s 719 mmHg 45%
    Arată mai mult